EDW214A LSZH-GCTS

Flight info

Callsign EDW214A
Flight time 4h 21m
Altitude 33000
Route VEBIT T50 ROTOS Z669 ULMES DCT VADAR DCT NINTU DCT MEBAK DCT REPSI DCT LERGA DCT MINSO/N0453F350 DCT NARAK DCT AGN DCT LATEK N995 PPN N976 NEA L14 ADINO DCT ELVAR DCT SOTEX DCT BEXAL UN866 KONBA
Aircraft A320/M-SDE3FGHIRWY/LB1

Departure

Time 2026-05-07 16:35
Airport Zürich Airport (LSZH)

Arrival

Time 2026-05-07 20:56
Airport Tenerife Sur Airport (GCTS)
Time Latitude Longitude Altitude Speed Heading
2026-05-07 16:34 47.36098 8.26639 9649 ft 269 kts 242°
2026-05-07 16:35 47.35232 8.24168 10237 ft 278 kts 242°
2026-05-07 16:35 47.34301 8.21525 10379 ft 301 kts 242°
2026-05-07 16:35 47.33315 8.18742 10503 ft 323 kts 242°
2026-05-07 16:35 47.32238 8.15715 10704 ft 340 kts 242°
2026-05-07 16:36 47.31129 8.12596 11231 ft 346 kts 242°
2026-05-07 16:36 47.30006 8.09431 11825 ft 350 kts 242°
2026-05-07 16:36 47.28871 8.06237 12432 ft 354 kts 242°
2026-05-07 16:36 47.27724 8.03011 13024 ft 357 kts 242°
2026-05-07 16:37 47.26621 7.99728 13603 ft 361 kts 246°
2026-05-07 16:37 47.25667 7.96287 14154 ft 364 kts 247°
2026-05-07 16:37 47.24700 7.92814 14675 ft 368 kts 247°
2026-05-07 16:37 47.23737 7.89367 15193 ft 371 kts 247°
2026-05-07 16:38 47.22914 7.86430 15631 ft 373 kts 247°
2026-05-07 16:38 47.21915 7.82885 16157 ft 376 kts 247°
2026-05-07 16:38 47.20907 7.79326 16693 ft 379 kts 247°
2026-05-07 16:38 47.19889 7.75724 17191 ft 382 kts 247°
2026-05-07 16:39 47.18697 7.72223 17705 ft 385 kts 238°
2026-05-07 16:39 47.17115 7.69025 18234 ft 388 kts 232°
2026-05-07 16:39 47.15434 7.65907 18695 ft 391 kts 231°
2026-05-07 16:39 47.13742 7.62777 19141 ft 393 kts 231°
2026-05-07 16:40 47.12058 7.59664 19576 ft 395 kts 231°
2026-05-07 16:40 47.10342 7.56496 20008 ft 398 kts 231°
2026-05-07 16:40 47.08615 7.53309 20432 ft 400 kts 231°
2026-05-07 16:40 47.06878 7.50105 20846 ft 402 kts 231°
2026-05-07 16:41 47.05128 7.46887 21244 ft 405 kts 231°
2026-05-07 16:41 47.03368 7.43654 21642 ft 407 kts 231°
2026-05-07 16:41 47.01601 7.40405 22015 ft 409 kts 230°
2026-05-07 16:41 46.99813 7.37128 22395 ft 412 kts 230°
2026-05-07 16:42 46.98043 7.33896 22761 ft 414 kts 230°
2026-05-07 16:42 46.96237 7.30606 23136 ft 415 kts 230°
2026-05-07 16:42 46.94423 7.27306 23483 ft 418 kts 230°
2026-05-07 16:42 46.92598 7.23978 23778 ft 420 kts 230°
2026-05-07 16:43 46.90770 7.20637 24070 ft 421 kts 230°
2026-05-07 16:43 46.88938 7.17290 24383 ft 423 kts 230°
2026-05-07 16:43 46.87094 7.13931 24672 ft 424 kts 230°
2026-05-07 16:43 46.85240 7.10561 24949 ft 426 kts 230°
2026-05-07 16:44 46.83407 7.07230 25220 ft 427 kts 230°
2026-05-07 16:44 46.81538 7.03838 25496 ft 429 kts 230°
2026-05-07 16:44 46.79671 7.00454 25757 ft 430 kts 230°
2026-05-07 16:44 46.77786 6.97044 26013 ft 431 kts 230°
2026-05-07 16:45 46.75898 6.93641 26265 ft 433 kts 230°
2026-05-07 16:45 46.73995 6.90225 26505 ft 434 kts 230°
2026-05-07 16:45 46.72084 6.86797 26746 ft 436 kts 230°
2026-05-07 16:45 46.70176 6.83372 26957 ft 437 kts 231°
2026-05-07 16:46 46.68261 6.79931 27193 ft 438 kts 231°
2026-05-07 16:46 46.66366 6.76518 27395 ft 439 kts 232°
2026-05-07 16:46 46.64661 6.72826 27599 ft 441 kts 238°
2026-05-07 16:46 46.63078 6.68997 27795 ft 442 kts 238°
2026-05-07 16:47 46.61485 6.65162 28000 ft 443 kts 238°
2026-05-07 16:47 46.59889 6.61336 28296 ft 442 kts 238°
2026-05-07 16:47 46.58284 6.57504 28602 ft 441 kts 238°
2026-05-07 16:47 46.56697 6.53725 28869 ft 440 kts 238°
2026-05-07 16:48 46.55105 6.49936 29160 ft 439 kts 238°
2026-05-07 16:48 46.53518 6.46160 29440 ft 438 kts 238°
2026-05-07 16:48 46.51952 6.42437 29713 ft 438 kts 238°
2026-05-07 16:48 46.50368 6.38665 29993 ft 437 kts 238°
2026-05-07 16:49 46.48785 6.34904 30233 ft 436 kts 238°
2026-05-07 16:49 46.47206 6.31161 30462 ft 435 kts 238°
2026-05-07 16:49 46.45624 6.27420 30682 ft 435 kts 238°
2026-05-07 16:49 46.44045 6.23696 30927 ft 434 kts 238°
2026-05-07 16:50 46.42486 6.20022 31153 ft 433 kts 238°
2026-05-07 16:50 46.40886 6.16253 31387 ft 432 kts 238°
2026-05-07 16:50 46.39331 6.12595 31599 ft 432 kts 238°
2026-05-07 16:50 46.37759 6.08897 31798 ft 432 kts 238°
2026-05-07 16:51 46.36194 6.05220 32003 ft 431 kts 238°
2026-05-07 16:51 46.34608 6.01507 32240 ft 431 kts 238°
2026-05-07 16:51 46.33036 5.97828 32447 ft 430 kts 238°
2026-05-07 16:51 46.31465 5.94149 32684 ft 430 kts 238°
2026-05-07 16:52 46.29890 5.90469 32885 ft 429 kts 238°
2026-05-07 16:52 46.28315 5.86800 32996 ft 430 kts 238°
2026-05-07 16:52 46.26757 5.83176 33005 ft 431 kts 238°
2026-05-07 16:53 46.23596 5.75825 33004 ft 431 kts 238°
2026-05-07 16:53 46.20429 5.68492 33003 ft 431 kts 238°
2026-05-07 16:54 46.17251 5.61148 33002 ft 431 kts 238°
2026-05-07 16:54 46.14060 5.53812 33005 ft 432 kts 237°
2026-05-07 16:55 46.10716 5.46697 33000 ft 431 kts 235°
2026-05-07 16:55 46.07254 5.39648 33000 ft 431 kts 234°
2026-05-07 16:56 46.03799 5.32586 32994 ft 431 kts 235°
2026-05-07 16:56 45.98688 5.21986 32995 ft 432 kts 235°
2026-05-07 16:57 45.95266 5.14879 33000 ft 432 kts 235°
2026-05-07 16:57 45.91833 5.07801 32997 ft 432 kts 235°
2026-05-07 16:58 45.88389 5.00735 32998 ft 432 kts 235°
2026-05-07 16:58 45.84939 4.93669 32998 ft 432 kts 235°
2026-05-07 16:59 45.81506 4.86650 33005 ft 433 kts 235°
2026-05-07 16:59 45.78046 4.79601 33002 ft 433 kts 235°
2026-05-07 17:00 45.74578 4.72550 33007 ft 433 kts 235°
2026-05-07 17:00 45.71111 4.65511 32998 ft 433 kts 235°
2026-05-07 17:01 45.67657 4.58529 32999 ft 433 kts 235°
2026-05-07 17:01 45.64172 4.51503 32995 ft 433 kts 235°
2026-05-07 17:02 45.60688 4.44485 32998 ft 433 kts 235°
2026-05-07 17:02 45.57198 4.37459 32999 ft 434 kts 235°
2026-05-07 17:03 45.53701 4.30434 33001 ft 434 kts 235°
2026-05-07 17:03 45.50218 4.23465 32996 ft 434 kts 235°
2026-05-07 17:04 45.46700 4.16462 33003 ft 434 kts 234°
2026-05-07 17:04 45.43179 4.09469 32998 ft 435 kts 235°
2026-05-07 17:05 45.39656 4.02472 32990 ft 435 kts 234°
2026-05-07 17:05 45.36127 3.95483 32982 ft 435 kts 234°
2026-05-07 17:06 45.32615 3.88544 32981 ft 435 kts 234°
2026-05-07 17:06 45.30848 3.85070 32641 ft 431 kts 234°
2026-05-07 17:06 45.29108 3.81653 32841 ft 424 kts 234°
2026-05-07 17:07 45.27383 3.78272 32996 ft 422 kts 234°
2026-05-07 17:07 45.25662 3.74900 32990 ft 421 kts 234°
2026-05-07 17:07 45.22279 3.68132 32993 ft 420 kts 236°
2026-05-07 17:08 45.18973 3.61361 32996 ft 420 kts 236°
2026-05-07 17:08 45.15635 3.54552 32991 ft 420 kts 235°
2026-05-07 17:09 45.12286 3.47761 32988 ft 421 kts 235°
2026-05-07 17:09 45.08923 3.40980 32984 ft 421 kts 235°
2026-05-07 17:10 45.05579 3.34263 32978 ft 421 kts 235°
2026-05-07 17:10 45.02206 3.27508 32974 ft 421 kts 235°
2026-05-07 17:11 44.98833 3.20756 32975 ft 421 kts 235°
2026-05-07 17:11 44.95452 3.14008 32972 ft 420 kts 235°
2026-05-07 17:12 44.92093 3.07326 32973 ft 420 kts 235°
2026-05-07 17:12 44.88719 3.00605 32971 ft 420 kts 235°
2026-05-07 17:13 44.85335 2.93894 32969 ft 420 kts 234°
2026-05-07 17:13 44.82044 2.87109 32970 ft 420 kts 237°
2026-05-07 17:14 44.78908 2.80182 32971 ft 419 kts 237°
2026-05-07 17:14 44.75800 2.73302 32968 ft 419 kts 237°
2026-05-07 17:15 44.72629 2.66426 32963 ft 419 kts 237°
2026-05-07 17:15 44.69442 2.59568 32962 ft 419 kts 236°
2026-05-07 17:16 44.66254 2.52713 32960 ft 419 kts 237°
2026-05-07 17:16 44.63061 2.45872 32956 ft 419 kts 236°
2026-05-07 17:17 44.59886 2.39087 32961 ft 419 kts 236°
2026-05-07 17:17 44.56692 2.32258 32959 ft 419 kts 236°
2026-05-07 17:18 44.53496 2.25444 32960 ft 419 kts 236°
2026-05-07 17:18 44.50290 2.18629 32961 ft 419 kts 236°
2026-05-07 17:19 44.47104 2.11875 32958 ft 419 kts 236°
2026-05-07 17:19 44.43886 2.05074 32952 ft 419 kts 236°
2026-05-07 17:20 44.40675 1.98287 32950 ft 419 kts 236°
2026-05-07 17:20 44.37453 1.91504 32946 ft 419 kts 236°
2026-05-07 17:21 44.34254 1.84784 32947 ft 419 kts 236°
2026-05-07 17:21 44.31016 1.78007 32941 ft 419 kts 235°
2026-05-07 17:22 44.27795 1.71234 32940 ft 419 kts 236°
2026-05-07 17:22 44.24659 1.64375 32928 ft 419 kts 237°
2026-05-07 17:23 44.21559 1.57548 32943 ft 420 kts 237°
2026-05-07 17:23 44.18420 1.50713 32941 ft 420 kts 236°
2026-05-07 17:24 44.15247 1.43860 32928 ft 420 kts 236°
2026-05-07 17:24 44.12076 1.37034 32925 ft 420 kts 236°
2026-05-07 17:25 44.08924 1.30241 32925 ft 420 kts 236°
2026-05-07 17:25 44.05745 1.23409 32930 ft 420 kts 236°
2026-05-07 17:26 44.02563 1.16600 32936 ft 421 kts 236°
2026-05-07 17:26 43.99368 1.09778 32930 ft 421 kts 236°
2026-05-07 17:27 43.96179 1.02969 32926 ft 421 kts 236°
2026-05-07 17:27 43.93003 0.96206 32937 ft 421 kts 236°
2026-05-07 17:28 43.89791 0.89402 32932 ft 422 kts 236°
2026-05-07 17:28 43.86103 0.83113 32928 ft 421 kts 227°
2026-05-07 17:29 43.82193 0.77073 32934 ft 421 kts 227°
2026-05-07 17:29 43.78313 0.71061 32931 ft 421 kts 227°
2026-05-07 17:30 43.74397 0.65019 32930 ft 421 kts 227°
2026-05-07 17:30 43.70476 0.59001 32924 ft 422 kts 227°
2026-05-07 17:31 43.66549 0.52977 32929 ft 422 kts 227°
2026-05-07 17:31 43.62613 0.46957 32930 ft 422 kts 227°
2026-05-07 17:32 43.58703 0.40983 32930 ft 423 kts 227°
2026-05-07 17:32 43.54769 0.34967 32930 ft 423 kts 227°
2026-05-07 17:33 43.50821 0.28949 32931 ft 423 kts 227°
2026-05-07 17:33 43.46868 0.22949 32930 ft 423 kts 227°
2026-05-07 17:34 43.42926 0.16986 32936 ft 424 kts 227°
2026-05-07 17:34 43.38959 0.10999 32939 ft 424 kts 227°
2026-05-07 17:35 43.34988 0.05005 32946 ft 424 kts 227°
2026-05-07 17:35 43.31165 -0.00749 32951 ft 424 kts 227°
2026-05-07 17:36 43.27221 -0.06678 32955 ft 424 kts 227°
2026-05-07 17:36 43.23239 -0.12659 32959 ft 424 kts 227°
2026-05-07 17:37 43.19257 -0.18622 32958 ft 424 kts 227°
2026-05-07 17:37 43.15269 -0.24578 32953 ft 424 kts 226°
2026-05-07 17:38 43.11272 -0.30532 32957 ft 424 kts 227°
2026-05-07 17:38 43.07280 -0.36475 32958 ft 425 kts 227°
2026-05-07 17:39 43.03304 -0.42373 32956 ft 425 kts 226°
2026-05-07 17:39 42.99289 -0.48305 32966 ft 425 kts 227°
2026-05-07 17:40 42.95271 -0.54237 32966 ft 425 kts 227°
2026-05-07 17:40 42.91254 -0.60158 32965 ft 425 kts 226°
2026-05-07 17:41 42.87940 -0.66742 32964 ft 427 kts 244°
2026-05-07 17:41 42.86349 -0.74550 32958 ft 431 kts 258°
2026-05-07 17:42 42.85304 -0.82587 32954 ft 431 kts 257°
2026-05-07 17:42 42.84232 -0.90637 32948 ft 432 kts 257°
2026-05-07 17:43 42.83163 -0.98631 32953 ft 432 kts 257°
2026-05-07 17:43 42.82087 -1.06665 32951 ft 432 kts 257°
2026-05-07 17:44 42.81003 -1.14722 32950 ft 432 kts 257°
2026-05-07 17:44 42.79918 -1.22757 32947 ft 432 kts 257°
2026-05-07 17:45 42.78830 -1.30737 32942 ft 431 kts 257°
2026-05-07 17:45 42.77730 -1.38750 32940 ft 431 kts 257°
2026-05-07 17:46 42.76630 -1.46756 32937 ft 430 kts 258°
2026-05-07 17:46 42.75531 -1.54763 32938 ft 430 kts 258°
2026-05-07 17:47 42.74429 -1.62689 32939 ft 429 kts 257°
2026-05-07 17:47 42.73270 -1.70643 32935 ft 427 kts 253°
2026-05-07 17:48 42.71544 -1.78361 32934 ft 427 kts 252°
2026-05-07 17:48 42.69800 -1.86066 32930 ft 426 kts 252°
2026-05-07 17:49 42.68065 -1.93762 32934 ft 426 kts 252°
2026-05-07 17:49 42.66341 -2.01406 32935 ft 426 kts 252°
2026-05-07 17:50 42.64589 -2.09096 32931 ft 426 kts 252°
2026-05-07 17:50 42.62828 -2.16775 32928 ft 426 kts 252°
2026-05-07 17:51 42.61002 -2.24426 32926 ft 426 kts 251°
2026-05-07 17:51 42.59135 -2.31994 32925 ft 426 kts 251°
2026-05-07 17:52 42.57263 -2.39614 32926 ft 425 kts 251°
2026-05-07 17:52 42.55411 -2.47231 32928 ft 425 kts 251°
2026-05-07 17:53 42.53549 -2.54840 32935 ft 425 kts 251°
2026-05-07 17:53 42.51691 -2.62372 32939 ft 425 kts 251°
2026-05-07 17:54 42.49822 -2.69962 32938 ft 424 kts 251°
2026-05-07 17:54 42.47947 -2.77542 32936 ft 424 kts 251°
2026-05-07 17:55 42.46066 -2.85107 32938 ft 424 kts 252°
2026-05-07 17:55 42.43834 -2.92491 32935 ft 424 kts 246°
2026-05-07 17:56 42.41382 -2.99686 32938 ft 424 kts 246°
2026-05-07 17:56 42.38915 -3.06940 32935 ft 424 kts 246°
2026-05-07 17:57 42.36861 -3.12971 32931 ft 424 kts 246°
2026-05-07 17:57 42.33959 -3.21438 32932 ft 425 kts 247°
2026-05-07 17:58 42.31488 -3.28627 32934 ft 425 kts 247°
2026-05-07 17:58 42.28999 -3.35865 32938 ft 425 kts 247°
2026-05-07 17:59 42.26509 -3.43096 32936 ft 424 kts 247°
2026-05-07 17:59 42.24006 -3.50307 32939 ft 424 kts 247°
2026-05-07 18:00 42.21519 -3.57464 32937 ft 424 kts 248°
2026-05-07 18:00 42.19019 -3.64652 32939 ft 423 kts 248°
2026-05-07 18:01 42.16518 -3.71826 32934 ft 422 kts 248°
2026-05-07 18:01 42.14012 -3.78980 32932 ft 422 kts 248°
2026-05-07 18:02 42.10257 -3.89686 32920 ft 421 kts 248°
2026-05-07 18:03 42.07771 -3.96751 32913 ft 420 kts 248°
2026-05-07 18:03 42.05258 -4.03860 32911 ft 420 kts 248°
2026-05-07 18:04 42.02398 -4.10737 32909 ft 426 kts 237°
2026-05-07 18:04 41.98123 -4.16364 32899 ft 434 kts 226°
2026-05-07 18:05 41.93599 -4.21648 32905 ft 434 kts 226°
2026-05-07 18:05 41.89054 -4.26967 32909 ft 434 kts 227°
2026-05-07 18:06 41.84499 -4.32289 32902 ft 434 kts 227°
2026-05-07 18:06 41.79943 -4.37599 32907 ft 434 kts 227°
2026-05-07 18:07 41.75414 -4.42863 32908 ft 434 kts 227°
2026-05-07 18:07 41.70857 -4.48155 32911 ft 434 kts 227°
2026-05-07 18:08 41.66304 -4.53442 32915 ft 433 kts 228°
2026-05-07 18:08 41.61744 -4.58702 32912 ft 432 kts 228°
2026-05-07 18:09 41.57191 -4.63946 32913 ft 432 kts 228°
2026-05-07 18:09 41.52676 -4.69152 32919 ft 432 kts 228°
2026-05-07 18:10 41.48128 -4.74372 32922 ft 431 kts 228°
2026-05-07 18:10 41.43590 -4.79573 32920 ft 430 kts 228°
2026-05-07 18:11 41.39095 -4.84725 32916 ft 429 kts 229°
2026-05-07 18:11 41.34578 -4.89891 32911 ft 428 kts 229°
2026-05-07 18:12 41.30061 -4.95040 32912 ft 428 kts 228°
2026-05-07 18:12 41.25540 -5.00181 32908 ft 427 kts 228°
2026-05-07 18:13 41.21023 -5.05302 32906 ft 427 kts 228°
2026-05-07 18:13 41.16544 -5.10374 32905 ft 426 kts 228°
2026-05-07 18:14 41.12039 -5.15483 32902 ft 426 kts 228°
2026-05-07 18:14 41.07537 -5.20582 32906 ft 425 kts 228°
2026-05-07 18:15 41.03032 -5.25655 32907 ft 425 kts 228°
2026-05-07 18:15 40.98556 -5.30684 32909 ft 425 kts 227°
2026-05-07 18:16 40.94054 -5.35740 32912 ft 425 kts 227°
2026-05-07 18:16 40.89545 -5.40785 32914 ft 424 kts 227°
2026-05-07 18:17 40.85041 -5.45824 32912 ft 424 kts 227°
2026-05-07 18:17 40.80569 -5.50825 32907 ft 424 kts 227°
2026-05-07 18:18 40.76060 -5.55852 32903 ft 424 kts 227°
2026-05-07 18:18 40.71553 -5.60872 32899 ft 424 kts 227°
2026-05-07 18:19 40.67042 -5.65881 32900 ft 424 kts 226°
2026-05-07 18:19 40.62559 -5.70838 32896 ft 424 kts 226°
2026-05-07 18:20 40.58052 -5.75815 32899 ft 423 kts 226°
2026-05-07 18:20 40.53546 -5.80800 32898 ft 423 kts 226°
2026-05-07 18:21 40.49049 -5.85771 32902 ft 423 kts 226°
2026-05-07 18:21 40.44542 -5.90724 32899 ft 422 kts 226°
2026-05-07 18:22 40.40067 -5.95632 32895 ft 422 kts 226°
2026-05-07 18:22 40.35571 -6.00568 33244 ft 420 kts 226°
2026-05-07 18:22 40.33334 -6.03018 33497 ft 419 kts 226°
2026-05-07 18:23 40.31101 -6.05463 33749 ft 417 kts 226°
2026-05-07 18:23 40.28876 -6.07902 33998 ft 416 kts 226°
2026-05-07 18:23 40.26660 -6.10326 34223 ft 415 kts 226°
2026-05-07 18:23 40.24473 -6.12710 34404 ft 414 kts 226°
2026-05-07 18:24 40.22260 -6.15120 34604 ft 414 kts 226°
2026-05-07 18:24 40.20048 -6.17529 34798 ft 413 kts 226°
2026-05-07 18:24 40.17838 -6.19936 34880 ft 413 kts 226°
2026-05-07 18:25 40.13416 -6.24741 34879 ft 412 kts 225°
2026-05-07 18:25 40.09027 -6.29505 34876 ft 411 kts 225°
2026-05-07 18:26 40.04662 -6.34237 34868 ft 410 kts 225°
2026-05-07 18:26 40.00270 -6.38990 34868 ft 410 kts 225°
2026-05-07 18:27 39.95881 -6.43729 34865 ft 410 kts 225°
2026-05-07 18:27 39.91490 -6.48462 34864 ft 409 kts 225°
2026-05-07 18:28 39.87413 -6.53544 34862 ft 404 kts 231°
2026-05-07 18:28 39.83531 -6.58832 34859 ft 403 kts 231°
2026-05-07 18:29 39.79700 -6.64084 34865 ft 403 kts 231°
2026-05-07 18:29 39.75832 -6.69357 34861 ft 403 kts 231°
2026-05-07 18:30 39.71958 -6.74595 34863 ft 402 kts 231°
2026-05-07 18:30 39.68086 -6.79826 34861 ft 401 kts 231°
2026-05-07 18:31 39.64221 -6.85046 34860 ft 400 kts 231°
2026-05-07 18:31 39.60388 -6.90210 34858 ft 400 kts 231°
2026-05-07 18:32 39.56528 -6.95399 34857 ft 399 kts 231°
2026-05-07 18:32 39.52675 -7.00572 34860 ft 399 kts 230°
2026-05-07 18:33 39.48828 -7.05739 34862 ft 398 kts 230°
2026-05-07 18:33 39.45013 -7.10854 34860 ft 397 kts 230°
2026-05-07 18:34 39.41172 -7.15988 34860 ft 397 kts 230°
2026-05-07 18:34 39.37328 -7.21108 34862 ft 397 kts 230°
2026-05-07 18:35 39.33494 -7.26228 34865 ft 396 kts 230°
2026-05-07 18:35 39.29657 -7.31337 34865 ft 396 kts 230°
2026-05-07 18:36 39.25843 -7.36394 34869 ft 396 kts 230°
2026-05-07 18:36 39.21999 -7.41483 34872 ft 395 kts 229°
2026-05-07 18:37 39.18168 -7.46560 34874 ft 395 kts 229°
2026-05-07 18:37 39.14333 -7.51623 34881 ft 394 kts 229°
2026-05-07 18:38 39.10527 -7.56633 34884 ft 394 kts 229°
2026-05-07 18:38 39.06698 -7.61673 34882 ft 394 kts 229°
2026-05-07 18:39 39.02872 -7.66709 34885 ft 393 kts 229°
2026-05-07 18:39 38.99047 -7.71732 34889 ft 393 kts 229°
2026-05-07 18:40 38.95221 -7.76742 34886 ft 393 kts 229°
2026-05-07 18:40 38.91400 -7.81741 34884 ft 392 kts 229°
2026-05-07 18:41 38.87608 -7.86710 34891 ft 392 kts 228°
2026-05-07 18:41 38.83784 -7.91692 34892 ft 392 kts 228°
2026-05-07 18:42 38.79960 -7.96662 34893 ft 391 kts 228°
2026-05-07 18:42 38.76142 -8.01635 34897 ft 391 kts 228°
2026-05-07 18:43 38.72323 -8.06586 34904 ft 391 kts 228°
2026-05-07 18:43 38.68525 -8.11506 34907 ft 391 kts 228°
2026-05-07 18:44 38.64702 -8.16448 34906 ft 391 kts 227°
2026-05-07 18:44 38.61498 -8.20585 34909 ft 391 kts 227°
2026-05-07 18:45 38.57699 -8.25488 34917 ft 391 kts 227°
2026-05-07 18:45 38.53869 -8.30414 34919 ft 391 kts 227°
2026-05-07 18:46 38.50041 -8.35329 34918 ft 391 kts 227°
2026-05-07 18:46 38.46209 -8.40247 34926 ft 391 kts 227°
2026-05-07 18:47 38.42373 -8.45158 34929 ft 390 kts 227°
2026-05-07 18:47 38.38568 -8.50018 34930 ft 390 kts 227°
2026-05-07 18:48 38.34735 -8.54913 34933 ft 390 kts 227°
2026-05-07 18:48 38.30908 -8.59802 34937 ft 389 kts 227°
2026-05-07 18:49 38.27084 -8.64677 34940 ft 389 kts 227°
2026-05-07 18:49 38.23258 -8.69544 34937 ft 389 kts 227°
2026-05-07 18:50 38.19431 -8.74399 34945 ft 389 kts 226°
2026-05-07 18:50 38.15627 -8.79215 34947 ft 389 kts 226°
2026-05-07 18:51 38.11799 -8.84064 34949 ft 388 kts 226°
2026-05-07 18:51 38.07977 -8.88896 34954 ft 388 kts 226°
2026-05-07 18:52 38.04151 -8.93713 34953 ft 387 kts 226°
2026-05-07 18:52 38.00331 -8.98523 34952 ft 387 kts 226°
2026-05-07 18:53 37.96533 -9.03306 34954 ft 387 kts 226°
2026-05-07 18:53 37.92710 -9.08106 34952 ft 387 kts 226°
2026-05-07 18:54 37.88882 -9.12895 34952 ft 386 kts 226°
2026-05-07 18:54 37.85060 -9.17677 34949 ft 386 kts 225°
2026-05-07 18:55 37.81234 -9.22457 34952 ft 387 kts 225°
2026-05-07 18:55 37.77434 -9.27198 34957 ft 387 kts 225°
2026-05-07 18:56 37.73608 -9.31968 34956 ft 387 kts 225°
2026-05-07 18:56 37.69775 -9.36742 34962 ft 387 kts 225°
2026-05-07 18:57 37.65943 -9.41498 34962 ft 386 kts 225°
2026-05-07 18:57 37.62109 -9.46248 34968 ft 386 kts 225°
2026-05-07 18:58 37.58275 -9.50999 34969 ft 386 kts 225°
2026-05-07 18:58 37.54477 -9.55705 34965 ft 386 kts 225°
2026-05-07 18:59 37.50646 -9.60429 34974 ft 385 kts 225°
2026-05-07 18:59 37.46813 -9.65160 34972 ft 385 kts 225°
2026-05-07 19:00 37.42986 -9.69878 34974 ft 385 kts 224°
2026-05-07 19:00 37.39149 -9.74585 34973 ft 385 kts 224°
2026-05-07 19:01 37.35339 -9.79258 34979 ft 385 kts 224°
2026-05-07 19:01 37.31506 -9.83958 34971 ft 385 kts 224°
2026-05-07 19:02 37.27668 -9.88642 34968 ft 385 kts 224°
2026-05-07 19:02 37.23832 -9.93329 34967 ft 385 kts 224°
2026-05-07 19:03 37.20022 -9.97981 34974 ft 385 kts 224°
2026-05-07 19:03 37.16177 -10.02655 34970 ft 385 kts 224°
2026-05-07 19:04 37.12331 -10.07320 34973 ft 385 kts 224°
2026-05-07 19:04 37.08491 -10.11991 34968 ft 385 kts 224°
2026-05-07 19:05 37.04677 -10.16624 34968 ft 385 kts 224°
2026-05-07 19:05 37.00833 -10.21279 34967 ft 385 kts 223°
2026-05-07 19:06 36.96985 -10.25930 34962 ft 385 kts 223°
2026-05-07 19:06 36.91209 -10.32905 34966 ft 385 kts 223°
2026-05-07 19:07 36.87378 -10.37512 34961 ft 385 kts 223°
2026-05-07 19:07 36.83518 -10.42145 34962 ft 385 kts 223°
2026-05-07 19:08 36.79662 -10.46776 34959 ft 385 kts 223°
2026-05-07 19:08 36.75805 -10.51413 34960 ft 385 kts 223°
2026-05-07 19:09 36.71941 -10.56044 34960 ft 385 kts 223°
2026-05-07 19:09 36.68101 -10.60630 34966 ft 385 kts 223°
2026-05-07 19:10 36.64235 -10.65240 34968 ft 385 kts 223°
2026-05-07 19:10 36.60360 -10.69846 34969 ft 385 kts 223°
2026-05-07 19:11 36.56490 -10.74454 34974 ft 385 kts 223°
2026-05-07 19:11 36.52647 -10.79019 34976 ft 385 kts 223°
2026-05-07 19:12 36.48774 -10.83604 34978 ft 384 kts 222°
2026-05-07 19:12 36.44904 -10.88199 34979 ft 384 kts 223°
2026-05-07 19:13 36.41040 -10.92787 34981 ft 384 kts 222°
2026-05-07 19:13 36.37195 -10.97329 34981 ft 384 kts 222°
2026-05-07 19:14 36.33320 -11.01887 34981 ft 384 kts 222°
2026-05-07 19:14 36.29456 -11.06446 34982 ft 383 kts 222°
2026-05-07 19:15 36.25589 -11.11003 34979 ft 383 kts 222°
2026-05-07 19:15 36.21747 -11.15516 34974 ft 383 kts 222°
2026-05-07 19:16 36.17883 -11.20054 34973 ft 383 kts 222°
2026-05-07 19:16 36.14011 -11.24581 34972 ft 383 kts 222°
2026-05-07 19:17 36.10140 -11.29113 34975 ft 383 kts 221°
2026-05-07 19:17 36.06290 -11.33610 34976 ft 383 kts 221°
2026-05-07 19:18 36.02409 -11.38134 34975 ft 384 kts 221°
2026-05-07 19:18 35.98525 -11.42659 34982 ft 384 kts 221°
2026-05-07 19:19 35.94439 -11.46795 34986 ft 382 kts 215°
2026-05-07 19:19 35.90111 -11.50604 34985 ft 382 kts 215°
2026-05-07 19:20 35.85780 -11.54404 34987 ft 382 kts 214°
2026-05-07 19:20 35.81446 -11.58196 34986 ft 382 kts 215°
2026-05-07 19:21 35.77123 -11.61989 34982 ft 381 kts 215°
2026-05-07 19:21 35.72830 -11.65748 34981 ft 381 kts 214°
2026-05-07 19:22 35.68501 -11.69527 34982 ft 381 kts 214°
2026-05-07 19:22 35.64186 -11.73291 34981 ft 380 kts 215°
2026-05-07 19:23 35.59864 -11.77062 34983 ft 380 kts 214°
2026-05-07 19:23 35.55575 -11.80787 34982 ft 380 kts 214°
2026-05-07 19:24 35.51259 -11.84533 34984 ft 380 kts 214°
2026-05-07 19:24 35.46940 -11.88284 34979 ft 380 kts 214°
2026-05-07 19:25 35.42622 -11.92024 34978 ft 380 kts 214°
2026-05-07 19:25 35.38337 -11.95727 34972 ft 380 kts 214°
2026-05-07 19:26 35.34023 -11.99467 34976 ft 379 kts 214°
2026-05-07 19:26 35.29706 -12.03197 34975 ft 380 kts 214°
2026-05-07 19:27 35.25381 -12.06912 34978 ft 380 kts 214°
2026-05-07 19:27 35.21096 -12.10610 34978 ft 380 kts 215°
2026-05-07 19:28 35.16771 -12.14329 34980 ft 380 kts 214°
2026-05-07 19:28 35.12451 -12.18036 34983 ft 379 kts 215°
2026-05-07 19:29 35.08133 -12.21739 34979 ft 379 kts 215°
2026-05-07 19:29 35.03845 -12.25411 34976 ft 379 kts 215°
2026-05-07 19:30 34.99522 -12.29105 34975 ft 379 kts 215°
2026-05-07 19:30 34.95202 -12.32795 34976 ft 379 kts 215°
2026-05-07 19:31 34.90882 -12.36488 34976 ft 379 kts 215°
2026-05-07 19:31 34.86557 -12.40177 34973 ft 379 kts 215°
2026-05-07 19:32 34.82224 -12.43861 34978 ft 380 kts 215°
2026-05-07 19:32 34.77920 -12.47514 34980 ft 380 kts 215°
2026-05-07 19:33 34.73582 -12.51195 34982 ft 380 kts 215°
2026-05-07 19:33 34.69246 -12.54871 34986 ft 380 kts 215°
2026-05-07 19:34 34.64908 -12.58540 34987 ft 380 kts 215°
2026-05-07 19:34 34.60589 -12.62184 34987 ft 380 kts 215°
2026-05-07 19:35 34.56242 -12.65852 34987 ft 381 kts 215°
2026-05-07 19:35 34.51893 -12.69515 34987 ft 381 kts 215°
2026-05-07 19:36 34.47545 -12.73179 34988 ft 381 kts 216°
2026-05-07 19:36 34.43197 -12.76841 34983 ft 380 kts 216°
2026-05-07 19:37 34.38878 -12.80468 34977 ft 380 kts 216°
2026-05-07 19:37 34.34527 -12.84110 34977 ft 380 kts 215°
2026-05-07 19:38 34.30171 -12.87751 34978 ft 381 kts 216°
2026-05-07 19:38 34.25816 -12.91402 34982 ft 381 kts 216°
2026-05-07 19:39 34.21476 -12.95071 34981 ft 381 kts 216°
2026-05-07 19:39 34.17159 -12.98720 34982 ft 381 kts 216°
2026-05-07 19:40 34.12805 -13.02387 34986 ft 382 kts 216°
2026-05-07 19:40 34.08447 -13.06056 34985 ft 382 kts 216°
2026-05-07 19:41 34.04080 -13.09720 34985 ft 383 kts 216°
2026-05-07 19:41 33.99734 -13.13361 34987 ft 383 kts 216°
2026-05-07 19:42 33.95361 -13.17031 34989 ft 383 kts 216°
2026-05-07 19:42 33.90977 -13.20706 34985 ft 384 kts 216°
2026-05-07 19:43 33.86585 -13.24370 34987 ft 384 kts 217°
2026-05-07 19:43 33.82222 -13.28020 34985 ft 385 kts 217°
2026-05-07 19:44 33.77822 -13.31685 34985 ft 385 kts 217°
2026-05-07 19:44 33.73408 -13.35351 34984 ft 386 kts 217°
2026-05-07 19:45 33.68995 -13.39023 34985 ft 386 kts 217°
2026-05-07 19:45 33.64611 -13.42676 34982 ft 386 kts 217°
2026-05-07 19:46 33.60191 -13.46341 34983 ft 387 kts 217°
2026-05-07 19:46 33.55757 -13.50005 34983 ft 387 kts 217°
2026-05-07 19:47 33.51327 -13.53672 34983 ft 387 kts 217°
2026-05-07 19:47 33.46886 -13.57340 34984 ft 388 kts 217°
2026-05-07 19:48 33.42441 -13.61015 34984 ft 388 kts 217°
2026-05-07 19:48 33.38020 -13.64662 34984 ft 389 kts 217°
2026-05-07 19:49 33.33566 -13.68328 34981 ft 389 kts 217°
2026-05-07 19:49 33.29108 -13.71999 34975 ft 389 kts 218°
2026-05-07 19:50 33.24646 -13.75664 34975 ft 389 kts 218°
2026-05-07 19:50 33.20211 -13.79292 34975 ft 390 kts 218°
2026-05-07 19:51 33.15732 -13.82956 34978 ft 390 kts 218°
2026-05-07 19:51 33.11247 -13.86618 34977 ft 391 kts 218°
2026-05-07 19:52 33.06741 -13.90273 34978 ft 392 kts 218°
2026-05-07 19:52 33.02259 -13.93898 34978 ft 392 kts 218°
2026-05-07 19:53 32.97738 -13.97558 34982 ft 393 kts 218°
2026-05-07 19:53 32.93220 -14.01221 34978 ft 393 kts 218°
2026-05-07 19:54 32.88689 -14.04883 34979 ft 394 kts 218°
2026-05-07 19:54 32.84176 -14.08520 34979 ft 395 kts 218°
2026-05-07 19:55 32.79622 -14.12183 34981 ft 395 kts 218°
2026-05-07 19:55 32.75068 -14.15847 34979 ft 396 kts 219°
2026-05-07 19:56 32.70497 -14.19513 34981 ft 396 kts 219°
2026-05-07 19:56 32.65928 -14.23179 34985 ft 397 kts 219°
2026-05-07 19:57 32.61352 -14.26847 34984 ft 397 kts 219°
2026-05-07 19:57 32.56802 -14.30491 34983 ft 398 kts 219°
2026-05-07 19:58 32.52214 -14.34160 34983 ft 398 kts 219°
2026-05-07 19:58 32.47628 -14.37830 34982 ft 398 kts 219°
2026-05-07 19:59 32.43026 -14.41489 34990 ft 398 kts 219°
2026-05-07 19:59 32.38456 -14.45127 34989 ft 399 kts 219°
2026-05-07 20:00 32.33856 -14.48793 34998 ft 399 kts 220°
2026-05-07 20:00 32.29249 -14.52458 34996 ft 399 kts 220°
2026-05-07 20:01 32.24642 -14.56118 34998 ft 399 kts 220°
2026-05-07 20:01 32.20061 -14.59748 35002 ft 399 kts 220°
2026-05-07 20:02 32.15449 -14.63398 35009 ft 399 kts 220°
2026-05-07 20:02 32.10838 -14.67045 35013 ft 399 kts 220°
2026-05-07 20:03 32.06222 -14.70688 35016 ft 399 kts 220°
2026-05-07 20:03 32.01603 -14.74318 35013 ft 399 kts 220°
2026-05-07 20:04 31.97024 -14.77928 35014 ft 399 kts 221°
2026-05-07 20:04 31.92417 -14.81561 35009 ft 399 kts 221°
2026-05-07 20:05 31.87803 -14.85179 35021 ft 398 kts 221°
2026-05-07 20:05 31.83195 -14.88800 35022 ft 398 kts 221°
2026-05-07 20:06 31.78619 -14.92388 35032 ft 398 kts 221°
2026-05-07 20:06 31.74016 -14.95988 35027 ft 397 kts 221°
2026-05-07 20:07 31.69413 -14.99583 35029 ft 397 kts 221°
2026-05-07 20:07 31.64815 -15.03167 35028 ft 396 kts 221°
2026-05-07 20:08 31.60257 -15.06716 35027 ft 396 kts 221°
2026-05-07 20:08 31.55669 -15.10294 35028 ft 395 kts 221°
2026-05-07 20:09 31.51098 -15.13863 35029 ft 395 kts 221°
2026-05-07 20:10 31.44242 -15.19191 35032 ft 394 kts 221°
2026-05-07 20:10 31.39680 -15.22730 35035 ft 393 kts 221°
2026-05-07 20:11 31.35157 -15.26236 35031 ft 392 kts 221°
2026-05-07 20:11 31.30613 -15.29756 35033 ft 392 kts 221°
2026-05-07 20:12 31.25903 -15.33034 35032 ft 395 kts 218°
2026-05-07 20:12 31.21037 -15.36050 35032 ft 396 kts 217°
2026-05-07 20:13 31.16200 -15.39025 35032 ft 395 kts 217°
2026-05-07 20:13 31.11375 -15.42075 35028 ft 393 kts 218°
2026-05-07 20:14 31.06583 -15.45140 35028 ft 393 kts 218°
2026-05-07 20:14 31.01790 -15.48193 35029 ft 392 kts 218°
2026-05-07 20:15 30.96997 -15.51232 35026 ft 392 kts 218°
2026-05-07 20:15 30.92251 -15.54243 35025 ft 391 kts 218°
2026-05-07 20:16 30.87474 -15.57265 35032 ft 390 kts 219°
2026-05-07 20:16 30.82702 -15.60283 35022 ft 390 kts 219°
2026-05-07 20:17 30.77935 -15.63290 35016 ft 390 kts 219°
2026-05-07 20:17 30.73211 -15.66283 35022 ft 389 kts 219°
2026-05-07 20:18 30.68452 -15.69293 35023 ft 389 kts 219°
2026-05-07 20:18 30.63695 -15.72290 35019 ft 389 kts 219°
2026-05-07 20:19 30.58933 -15.75279 35015 ft 389 kts 219°
2026-05-07 20:19 30.54179 -15.78262 35011 ft 388 kts 219°
2026-05-07 20:20 30.49459 -15.81226 35005 ft 388 kts 219°
2026-05-07 20:20 30.44705 -15.84197 35000 ft 388 kts 219°
2026-05-07 20:21 30.39960 -15.87172 34994 ft 388 kts 219°
2026-05-07 20:21 30.35214 -15.90151 35001 ft 388 kts 219°
2026-05-07 20:22 30.30496 -15.93100 35001 ft 388 kts 219°
2026-05-07 20:22 30.25744 -15.96066 35000 ft 388 kts 219°
2026-05-07 20:23 30.20984 -15.99026 35001 ft 389 kts 219°
2026-05-07 20:23 30.16218 -16.01996 35004 ft 389 kts 219°
2026-05-07 20:24 30.11447 -16.04968 35004 ft 390 kts 219°
2026-05-07 20:24 30.06696 -16.07921 35006 ft 391 kts 219°
2026-05-07 20:25 30.01902 -16.10897 35006 ft 392 kts 219°
2026-05-07 20:25 29.97095 -16.13874 35004 ft 392 kts 219°
2026-05-07 20:26 29.92281 -16.16849 35010 ft 393 kts 219°
2026-05-07 20:26 29.87493 -16.19804 35011 ft 394 kts 219°
2026-05-07 20:27 29.82665 -16.22793 35013 ft 394 kts 219°
2026-05-07 20:27 29.77822 -16.25785 35012 ft 395 kts 219°
2026-05-07 20:28 29.72967 -16.28781 35011 ft 397 kts 219°
2026-05-07 20:28 29.68129 -16.31759 35015 ft 398 kts 219°
2026-05-07 20:29 29.63246 -16.34763 35012 ft 399 kts 218°
2026-05-07 20:29 29.58474 -16.37929 35010 ft 389 kts 226°
2026-05-07 20:30 29.54320 -16.41850 35017 ft 387 kts 228°
2026-05-07 20:30 29.50192 -16.45751 35019 ft 387 kts 228°
2026-05-07 20:31 29.46021 -16.49680 35016 ft 388 kts 228°
2026-05-07 20:31 29.41837 -16.53608 35021 ft 389 kts 228°
2026-05-07 20:32 29.37649 -16.57547 35018 ft 390 kts 228°
2026-05-07 20:32 29.33451 -16.61491 35018 ft 391 kts 228°
2026-05-07 20:33 29.29270 -16.65415 35021 ft 391 kts 228°
2026-05-07 20:33 29.25053 -16.69373 35022 ft 392 kts 228°
2026-05-07 20:34 29.20824 -16.73328 35021 ft 393 kts 227°
2026-05-07 20:34 29.16595 -16.77289 35017 ft 393 kts 227°
2026-05-07 20:35 29.12381 -16.81235 35021 ft 395 kts 227°
2026-05-07 20:35 29.08124 -16.85207 35015 ft 395 kts 227°
2026-05-07 20:36 29.03858 -16.89182 35018 ft 396 kts 227°
2026-05-07 20:36 28.99618 -16.93133 35019 ft 396 kts 227°
2026-05-07 20:36 28.97476 -16.95127 34827 ft 398 kts 227°
2026-05-07 20:37 28.95329 -16.97121 34589 ft 398 kts 226°
2026-05-07 20:37 28.93176 -16.99119 34292 ft 399 kts 226°
2026-05-07 20:37 28.91025 -17.01117 33406 ft 401 kts 226°
2026-05-07 20:37 28.88855 -17.03135 32492 ft 403 kts 226°
2026-05-07 20:38 28.86674 -17.05161 31580 ft 405 kts 226°
2026-05-07 20:38 28.84487 -17.07186 30690 ft 406 kts 226°
2026-05-07 20:38 28.82306 -17.09206 29609 ft 411 kts 226°
2026-05-07 20:38 28.80079 -17.11270 28517 ft 414 kts 226°
2026-05-07 20:39 28.77844 -17.13341 27493 ft 415 kts 225°
2026-05-07 20:39 28.75599 -17.15427 26504 ft 416 kts 225°
2026-05-07 20:39 28.73374 -17.17487 25846 ft 409 kts 225°
2026-05-07 20:39 28.71174 -17.19519 25149 ft 405 kts 225°
2026-05-07 20:40 28.68994 -17.21527 24456 ft 401 kts 225°
2026-05-07 20:40 28.66833 -17.23522 23775 ft 398 kts 224°
2026-05-07 20:40 28.64688 -17.25499 23029 ft 395 kts 224°
2026-05-07 20:40 28.62587 -17.27432 22418 ft 391 kts 224°
2026-05-07 20:41 28.60484 -17.29367 21784 ft 387 kts 224°
2026-05-07 20:41 28.58399 -17.31289 21193 ft 384 kts 224°
2026-05-07 20:41 28.56331 -17.33196 20604 ft 382 kts 224°
2026-05-07 20:41 28.54269 -17.35097 20031 ft 380 kts 224°
2026-05-07 20:42 28.52190 -17.36947 19483 ft 382 kts 218°
2026-05-07 20:42 28.49809 -17.38327 18934 ft 389 kts 204°
2026-05-07 20:42 28.47148 -17.38996 18398 ft 396 kts 189°
2026-05-07 20:42 28.44375 -17.38853 17821 ft 403 kts 173°
2026-05-07 20:43 28.41734 -17.37888 17564 ft 398 kts 158°
2026-05-07 20:43 28.39416 -17.36218 16373 ft 406 kts 140°
2026-05-07 20:43 28.37337 -17.34003 14951 ft 414 kts 137°
2026-05-07 20:43 28.35285 -17.31749 14311 ft 401 kts 137°
2026-05-07 20:44 28.33342 -17.29595 14005 ft 389 kts 137°
2026-05-07 20:44 28.31401 -17.27446 13380 ft 390 kts 137°
2026-05-07 20:44 28.29456 -17.25307 12777 ft 389 kts 137°
2026-05-07 20:44 28.27506 -17.23178 12154 ft 389 kts 137°
2026-05-07 20:45 28.25553 -17.21058 11511 ft 388 kts 137°
2026-05-07 20:45 28.23603 -17.18947 10936 ft 386 kts 137°
2026-05-07 20:45 28.21721 -17.16913 10800 ft 371 kts 137°
2026-05-07 20:45 28.19895 -17.14938 10682 ft 356 kts 137°
2026-05-07 20:46 28.18134 -17.13033 10560 ft 343 kts 137°
2026-05-07 20:46 28.16440 -17.11196 10442 ft 331 kts 137°
2026-05-07 20:46 28.14802 -17.09422 10275 ft 322 kts 137°
2026-05-07 20:46 28.13208 -17.07698 10107 ft 314 kts 137°
2026-05-07 20:47 28.11617 -17.05982 10033 ft 316 kts 137°
2026-05-07 20:47 28.10013 -17.04254 9534 ft 318 kts 137°
2026-05-07 20:47 28.08455 -17.02574 8983 ft 310 kts 137°
2026-05-07 20:47 28.06904 -17.00902 8500 ft 309 kts 137°
2026-05-07 20:48 28.05354 -16.99227 8075 ft 304 kts 137°
2026-05-07 20:48 28.03839 -16.97588 7546 ft 299 kts 137°
2026-05-07 20:48 28.02344 -16.95970 7068 ft 295 kts 137°
2026-05-07 20:48 28.00871 -16.94375 6368 ft 293 kts 137°
2026-05-07 20:49 27.99588 -16.92984 5209 ft 295 kts 136°
2026-05-07 20:49 27.98062 -16.91339 3815 ft 308 kts 136°
2026-05-07 20:49 27.96566 -16.89733 3374 ft 290 kts 136°
2026-05-07 20:49 27.95217 -16.88167 3173 ft 265 kts 124°
2026-05-07 20:50 27.94620 -16.86238 3061 ft 265 kts 91°
2026-05-07 20:50 27.94995 -16.84231 3016 ft 262 kts 68°
2026-05-07 20:50 27.95678 -16.82312 3015 ft 262 kts 66°
2026-05-07 20:50 27.96335 -16.80469 3009 ft 243 kts 67°
2026-05-07 20:51 27.96937 -16.78755 3008 ft 225 kts 67°
2026-05-07 20:51 27.97501 -16.77142 3018 ft 216 kts 67°
2026-05-07 20:51 27.98037 -16.75611 3008 ft 205 kts 67°
2026-05-07 20:51 27.98536 -16.74183 3004 ft 190 kts 67°
2026-05-07 20:52 27.99016 -16.72814 2776 ft 185 kts 67°
2026-05-07 20:52 27.99484 -16.71477 2537 ft 180 kts 67°
2026-05-07 20:52 27.99925 -16.70214 2309 ft 166 kts 67°
2026-05-07 20:52 28.00330 -16.69055 2122 ft 152 kts 67°
2026-05-07 20:53 28.00706 -16.67977 1917 ft 145 kts 68°
2026-05-07 20:53 28.01072 -16.66929 1720 ft 142 kts 68°
2026-05-07 20:53 28.01433 -16.65898 1524 ft 140 kts 68°
2026-05-07 20:53 28.01785 -16.64888 1347 ft 139 kts 68°
2026-05-07 20:54 28.02138 -16.63876 1157 ft 138 kts 68°
2026-05-07 20:54 28.02488 -16.62874 979 ft 136 kts 68°
2026-05-07 20:54 28.02835 -16.61878 800 ft 135 kts 69°
2026-05-07 20:54 28.03181 -16.60887 631 ft 135 kts 69°
2026-05-07 20:55 28.03523 -16.59906 456 ft 134 kts 68°
2026-05-07 20:55 28.03861 -16.58921 276 ft 133 kts 69°
2026-05-07 20:55 28.04178 -16.57953 196 ft 126 kts 60°
2026-05-07 20:55 28.04460 -16.57219 200 ft 77 kts 69°
2026-05-07 20:56 28.04577 -16.56970 199 ft 18 kts 51°
2026-05-07 20:56 28.04643 -16.56881 206 ft 12 kts 42°
2026-05-07 20:56 28.04691 -16.56834 213 ft 6 kts 43°
2026-05-07 20:56 28.04717 -16.56805 219 ft 9 kts 43°
2026-05-07 20:57 28.04772 -16.56855 219 ft 21 kts 248°
2026-05-07 20:57 28.04718 -16.57019 222 ft 17 kts 247°
2026-05-07 20:57 28.04693 -16.57137 223 ft 13 kts 291°
2026-05-07 20:57 28.04765 -16.57185 224 ft 11 kts 338°
2026-05-07 20:58 28.04777 -16.57243 227 ft 7 kts 251°
2026-05-07 20:58 28.04766 -16.57277 227 ft 7 kts 249°
2026-05-07 20:58 28.04744 -16.57339 225 ft 6 kts 248°
2026-05-07 20:58 28.04731 -16.57378 225 ft 5 kts 249°
2026-05-07 20:59 28.04721 -16.57412 225 ft 4 kts 260°
2026-05-07 20:59 28.04730 -16.57429 225 ft 1 kts 321°
2026-05-07 20:59 28.04733 -16.57430 225 ft 3 kts 331°
2026-05-07 20:59 28.04790 -16.57456 227 ft 4 kts 338°
2026-05-07 21:00 28.04791 -16.57456 227 ft 0 kts 338°